This is the latest recevied weather packets stored in our database for station/object KE4LOJ. If no packets are shown the sender has not sent any weather packets the latest 10 day(s).
| Time | Temp. | Humidity | Pressure | Rain* | Wind** | Luminosity | Snow |
|---|---|---|---|---|---|---|---|
| 1777204862 | 21.11° C | 93% | 1012.7 hPa | 0 mm | - | 48 W/m² | - |
| 1777204556 | 20.56° C | 95% | 1012.4 hPa | 0 mm | - | 45 W/m² | - |
| 1777204253 | 20.56° C | 96% | 1012.4 hPa | 0 mm | - | 40 W/m² | - |
| 1777203949 | 20.56° C | 97% | 1012.4 hPa | 0 mm | - | 25 W/m² | - |
| 1777203643 | 20° C | 97% | 1012.2 hPa | 0 mm | - | 25 W/m² | - |
| 1777203339 | 20° C | 98% | 1012.2 hPa | 0 mm | - | 21 W/m² | - |
| 1777203036 | 20° C | 98% | 1012.3 hPa | 0 mm | - | 20 W/m² | - |
| 1777202732 | 20° C | 98% | 1012.3 hPa | 0 mm | - | 17 W/m² | - |
| 1777202431 | 20° C | 98% | 1012.1 hPa | 0 mm | - | 15 W/m² | - |
| 1777202126 | 19.44° C | 98% | 1012.2 hPa | 0 mm | - | 13 W/m² | - |
| 1777201822 | 19.44° C | 98% | 1012.1 hPa | 0 mm | - | 10 W/m² | - |
| 1777201520 | 19.44° C | 98% | 1012.1 hPa | 0 mm | - | 8 W/m² | - |
| 1777201215 | 19.44° C | 98% | 1012 hPa | 0 mm | - | 6 W/m² | - |
| 1777200910 | 19.44° C | 98% | 1011.8 hPa | 0 mm | - | 4 W/m² | - |
| 1777200608 | 19.44° C | 98% | 1011.8 hPa | 0 mm | - | 2 W/m² | - |
| 1777200306 | 19.44° C | 98% | 1012 hPa | 0 mm | - | 1 W/m² | - |
| 1777200003 | 19.44° C | 97% | 1011.4 hPa | 0 mm | - | 0 W/m² | - |
| 1777199698 | 19.44° C | 97% | 1011.6 hPa | 0 mm | - | 0 W/m² | - |
| 1777199394 | 19.44° C | 97% | 1011.6 hPa | 0 mm | - | 0 W/m² | - |
| 1777199094 | 19.44° C | 97% | 1011.6 hPa | 0 mm | - | 0 W/m² | - |
| 1777198790 | 19.44° C | 97% | 1011.4 hPa | 0 mm | - | 0 W/m² | - |
| 1777198486 | 19.44° C | 97% | 1011.6 hPa | 0 mm | - | 0 W/m² | - |
| 1777198184 | 19.44° C | 97% | 1011.4 hPa | 0 mm | - | 0 W/m² | - |
* Rain latest hour (hover to see other rain measurements)
** Current wind speed in m/s (hover to see current wind gust speed)